Location: Poughquag
(41.6090°N, 73.6820°W)
Time: 11:08:35
(UTC-04:00)

Oscar 19 - Visible Passes

Search period start: 25 July 2024 00:00
Search period end: 04 August 2024 00:00
Orbit: 770 x 789 km, 98.9° (Epoch: 24 July)

Date Brightness Start Highest point End Pass type
(mag) Time Alt. Az. Time Alt. Az. Time Alt. Az.
27 Jul 13.3 05:08:27 10° NE 05:11:57 18° E 05:15:25 10° SE visible
30 Jul 13.3 05:10:03 10° NE 05:13:37 19° E 05:17:11 10° SE visible
02 Aug 13.3 05:11:39 10° NE 05:15:19 19° E 05:18:56 10° SE visible
